Missoula, MT

1:05 PM MST on January 24, 2017 (GMT -0700)
Missoula International

Weather History for KMSO - December, 2013

Change the Weather History Date:

Sunday, December 15, 2013

  Actual Average Record
Temperature  
Mean Temperature 31 °F 23 °F  
Max Temperature 43 °F 30 °F 56 °F (1924)
Min Temperature 18 °F 16 °F -12 °F (1972)
Degree Days  
Heating Degree Days 34 42  
Month to date heating degree days 746 604  
Since 1 July heating degree days 2601 2500  
Cooling Degree Days 0 0  
Month to date cooling degree days 0 0  
Year to date cooling degree days 579 332  
Moisture  
Dew Point 23 °F    
Average Humidity 83    
Maximum Humidity 100    
Minimum Humidity 65    
Precipitation  
Precipitation 0.00 in 0.03 in 0.33 in (2000)
Month to date precipitation 0.54 0.50  
Year to date precipitation 8.87 13.59  
Snow  
Snow 0.00 in - - ()
Month to date snowfall 6.9  
Year to date snowfall 36.1  
Since 1 July snowfall 8.7  
Snow Depth 3.00 in    
Sea Level Pressure  
Sea Level Pressure 30.29 in    
Wind  
Wind Speed 3 mph (NNW)    
Max Wind Speed 13 mph    
Max Gust Speed 16 mph    
Visibility 6 miles    
Events Fog    
T = Trace of Precipitation, MM = Missing Value Source: NWS Daily Summary

Daily Weather History Graph

Daily Weather History Graph

Search for Another Location

Airport or City:

Trip Planner

Search our weather history database for the weather conditions in past years. The results will help you decide how hot, cold, wet, or windy it might be!

Date:

Astronomy

Dec. 15, 2013 Rise Set
Actual Time 8:15 AM MST 4:48 PM MST
Civil Twilight 7:39 AM MST 5:23 PM MST
Nautical Twilight 7:01 AM MST 6:02 PM MST
Astronomical Twilight 6:24 AM MST 6:39 PM MST
Moon 3:59 PM MST (12/15) 6:30 AM MST (12/15)
Length of Visible Light 9h 43m
Length of Day
8h 32m
Waxing Gibbous, 98% of the Moon is Illuminated
Dec 15
Waxing Gibbous
Dec 17
Full
Dec 25
Last Quarter
Jan 1
New
Jan 7
First Quarter

Hourly Weather History & Observations

Time (MST) Temp. Windchill Dew Point Humidity Pressure Visibility Wind Dir Wind Speed Gust Speed Precip Events Conditions
12:03 AM 23.0 °F - 23.0 °F 100% 30.28 in 2.5 mi Calm Calm - N/A   Scattered Clouds
12:05 AM 23.0 °F 18.4 °F 21.2 °F 93% 30.28 in 1.2 mi South 3.5 mph - N/A   Scattered Clouds
12:10 AM 24.8 °F - 23.0 °F 93% 30.28 in 0.2 mi Calm Calm - N/A Fog Light Freezing Fog
12:47 AM 23.0 °F 17.0 °F 23.0 °F 100% 30.27 in 0.5 mi NNW 4.6 mph - N/A Fog Light Freezing Fog
12:53 AM 23.0 °F 14.7 °F 21.9 °F 96% 30.38 in 0.2 mi North 6.9 mph - N/A Fog Light Freezing Fog
1:02 AM 24.8 °F 17.9 °F 23.0 °F 93% 30.27 in 1.0 mi NW 5.8 mph - N/A   Mist
1:04 AM 24.8 °F 17.9 °F 23.0 °F 93% 30.27 in 2.5 mi NW 5.8 mph - N/A   Mist
1:11 AM 24.8 °F 16.1 °F 23.0 °F 93% 30.26 in 9.0 mi NW 8.1 mph - N/A   Unknown
1:53 AM 25.0 °F 17.1 °F 24.1 °F 96% 30.36 in 10.0 mi Variable 6.9 mph - N/A   Clear
2:38 AM 21.2 °F - 19.4 °F 93% 30.26 in 1.8 mi Calm Calm - N/A   Partly Cloudy
2:41 AM 19.4 °F - 19.4 °F 100% 30.27 in 0.8 mi Calm Calm - N/A   Mist
2:51 AM 19.4 °F - 17.6 °F 93% 30.26 in 0.2 mi Calm Calm - N/A Fog Light Freezing Fog
2:53 AM 19.0 °F 13.9 °F 18.0 °F 96% 30.37 in 0.2 mi Variable 3.5 mph - N/A Fog Light Freezing Fog
3:00 AM 19.4 °F - 17.6 °F 93% 30.26 in 0.8 mi Calm Calm - N/A   Mist
3:02 AM 19.4 °F 14.3 °F 17.6 °F 93% 30.26 in 1.2 mi ESE 3.5 mph - N/A   Scattered Clouds
3:04 AM 19.4 °F 14.3 °F 17.6 °F 93% 30.26 in 2.0 mi East 3.5 mph - N/A   Scattered Clouds
3:12 AM 19.4 °F - 17.6 °F 93% 30.26 in 4.0 mi Calm Calm - N/A   Scattered Clouds
3:53 AM 19.0 °F - 17.1 °F 92% 30.37 in 9.0 mi Calm Calm - N/A   Partly Cloudy
4:04 AM 17.6 °F - 15.8 °F 93% 30.25 in 2.0 mi Calm Calm - N/A   Scattered Clouds
4:06 AM 17.6 °F - 17.6 °F 100% 30.25 in 1.2 mi Calm Calm - N/A   Mostly Cloudy
4:09 AM 19.4 °F - 17.6 °F 93% 30.25 in 0.8 mi Calm Calm - N/A   Mostly Cloudy
4:19 AM 19.4 °F - 17.6 °F 93% 30.24 in 1.2 mi Calm Calm - N/A   Mostly Cloudy
4:21 AM 19.4 °F - 17.6 °F 93% 30.24 in 2.5 mi Calm Calm - N/A   Mostly Cloudy
4:28 AM 17.6 °F - 17.6 °F 100% 30.24 in 10.0 mi Calm Calm - N/A   Overcast
4:40 AM 19.4 °F 12.8 °F 19.4 °F 100% 30.24 in 1.8 mi West 4.6 mph - N/A   Overcast
4:43 AM 19.4 °F 12.8 °F 19.4 °F 100% 30.24 in 1.0 mi WNW 4.6 mph - N/A   Overcast
4:53 AM 19.9 °F - 19.0 °F 96% 30.35 in 2.0 mi Calm Calm - N/A   Overcast
5:01 AM 19.4 °F 14.3 °F 19.4 °F 100% 30.24 in 4.0 mi West 3.5 mph - N/A   Overcast
5:53 AM 21.9 °F 14.5 °F 21.0 °F 96% 30.34 in 10.0 mi ENE 5.8 mph - N/A   Overcast
6:53 AM 24.1 °F 19.7 °F 21.9 °F 91% 30.32 in 10.0 mi Variable 3.5 mph - N/A   Partly Cloudy
7:53 AM 21.9 °F - 21.0 °F 96% 30.33 in 10.0 mi Calm Calm - N/A   Partly Cloudy
8:53 AM 24.1 °F - 23.0 °F 96% 30.34 in 10.0 mi Calm Calm - N/A   Overcast
9:53 AM 26.1 °F 20.5 °F 24.1 °F 92% 30.34 in 10.0 mi WNW 4.6 mph - N/A   Overcast
10:53 AM 28.0 °F 24.2 °F 26.1 °F 92% 30.33 in 10.0 mi Variable 3.5 mph - N/A   Mostly Cloudy
11:53 AM 28.0 °F 24.2 °F 27.0 °F 96% 30.33 in 10.0 mi Variable 3.5 mph - N/A   Overcast
12:53 PM 30.0 °F - 28.0 °F 92% 30.32 in 10.0 mi Calm Calm - N/A   Overcast
1:53 PM 35.1 °F - 30.0 °F 82% 30.30 in 10.0 mi Calm Calm - N/A   Overcast
2:53 PM 39.0 °F - 30.0 °F 70% 30.29 in 10.0 mi Calm Calm - N/A   Overcast
3:53 PM 37.0 °F - 30.9 °F 79% 30.31 in 10.0 mi Calm Calm - N/A   Overcast
4:53 PM 39.0 °F 36.8 °F 30.0 °F 70% 30.30 in 10.0 mi NNE 3.5 mph - N/A   Overcast
5:53 PM 39.0 °F 34.8 °F 30.0 °F 70% 30.30 in 10.0 mi North 5.8 mph - N/A   Overcast
6:53 PM 39.0 °F - 30.9 °F 73% 30.30 in 10.0 mi Calm Calm - N/A   Overcast
7:53 PM 41.0 °F - 30.9 °F 67% 30.32 in 10.0 mi Calm Calm - N/A   Overcast
8:53 PM 39.0 °F 35.7 °F 30.9 °F 73% 30.31 in 10.0 mi Variable 4.6 mph - N/A   Overcast
9:53 PM 39.9 °F 36.7 °F 32.0 °F 73% 30.30 in 10.0 mi East 4.6 mph - N/A   Overcast
10:53 PM 39.0 °F - 32.0 °F 76% 30.30 in 10.0 mi Calm Calm - N/A   Overcast
11:53 PM 42.1 °F 40.2 °F 32.0 °F 67% 30.31 in 10.0 mi East 3.5 mph - N/A   Overcast